Date String (YYYY-MM-DD hh:mm:ss) UTC,Instrument flags,Ambient pressure (hPa),Sample flow (lpm),Bypass flow (lpm),Sample temperature (°C),Ambient temperature (°C),ASC tube jacket temperature (°C),LED temperature (°C),Box temperature (°C),Sample RH (%),Span deviation,Mass concentration (μg/m³),Mass concentration (μg/m³),Mass concentration (μg/m³)
DateTimeUTC,F1_M11,P_M11,Q1_M11,Q2_M11,T1_M11,T2_M11,T3_M11,T4_M11,T5_M11,U1_M11,ZSPAN_M11,X0_M11,X2_M11,X1_M11
2023-04-29 11:00:00,,0832.7,5.01,0.00,22.7,21.4,00.0,31.1,24.3,13.0,0000.0,0010.11,0004.28,0001.92
2023-04-29 11:01:00,,0832.7,5.00,0.00,22.8,21.4,00.0,31.1,24.3,12.9,0000.0,0009.78,0004.15,0001.89
2023-04-29 11:02:00,,0832.7,5.01,0.00,22.8,21.4,00.0,31.1,24.3,12.9,0000.0,0010.39,0004.08,0001.86
2023-04-29 11:03:00,,0832.6,5.01,0.00,22.8,21.5,00.0,31.1,24.3,12.9,0000.0,0010.78,0004.12,0001.89
2023-04-29 11:04:00,,0832.7,4.99,0.00,22.8,21.5,00.0,31.1,24.4,13.2,0000.0,0010.83,0004.11,0001.88
2023-04-29 11:05:00,,0832.6,5.00,0.00,22.8,21.5,00.0,31.1,24.4,13.5,0000.0,0010.98,0004.11,0001.89
2023-04-29 11:06:00,,0832.7,4.99,0.00,22.8,21.6,00.0,31.1,24.4,13.4,0000.0,0010.84,0004.04,0001.89
2023-04-29 11:07:00,,0832.7,5.01,0.00,22.8,21.6,00.0,31.1,24.4,13.7,0000.0,0010.44,0003.93,0001.88
2023-04-29 11:08:00,,0832.7,5.01,0.00,22.8,21.6,00.0,31.1,24.4,13.6,0000.0,0010.24,0003.88,0001.90
2023-04-29 11:09:00,,0832.7,4.98,0.00,22.9,21.6,00.0,31.1,24.5,13.5,0000.0,0010.09,0003.86,0001.92
2023-04-29 11:10:00,,0832.7,4.99,0.00,22.9,21.6,00.0,31.1,24.5,13.5,0000.0,0010.49,0003.91,0001.94
2023-04-29 11:11:00,,0832.7,5.00,0.00,22.8,21.5,00.0,31.2,24.5,13.3,0000.0,0011.23,0003.94,0001.94
2023-04-29 11:12:00,,0832.7,5.01,0.00,22.8,21.5,00.0,31.2,24.4,13.0,0000.0,0011.55,0004.04,0001.97
2023-04-29 11:13:00,,0832.7,5.00,0.00,22.8,21.5,00.0,31.2,24.5,13.8,0000.0,0010.89,0004.11,0001.99
2023-04-29 11:14:00,,0832.7,5.00,0.00,22.8,21.5,00.0,31.2,24.4,13.9,0000.0,0010.81,0004.07,0001.97
2023-04-29 11:15:00,,0832.7,4.99,0.00,22.9,21.5,00.0,31.2,24.4,13.6,0000.0,0010.87,0004.08,0001.97
2023-04-29 11:16:00,,0832.7,5.00,0.00,22.9,21.5,00.0,31.2,24.4,13.4,0000.0,0010.70,0004.07,0001.96
2023-04-29 11:17:00,,0832.7,5.01,0.00,22.8,21.5,00.0,31.2,24.4,13.8,0000.0,0010.57,0004.09,0001.97
2023-04-29 11:18:00,,0832.7,5.00,0.00,22.8,21.4,00.0,31.2,24.4,13.6,0000.0,0010.74,0004.15,0001.97
2023-04-29 11:19:00,,0832.7,5.00,0.00,22.8,21.4,00.0,31.2,24.4,13.2,0000.0,0010.80,0004.16,0001.96
2023-04-29 11:20:00,,0832.7,4.99,0.00,22.8,21.4,00.0,31.2,24.4,13.2,0000.0,0010.85,0004.20,0001.94
2023-04-29 11:21:00,,0832.7,5.00,0.00,22.8,21.4,00.0,31.2,24.4,13.2,0000.0,0011.21,0004.32,0001.93
2023-04-29 11:22:00,,0832.7,5.00,0.00,22.8,21.4,00.0,31.2,24.4,13.2,0000.0,0010.72,0004.41,0001.93
2023-04-29 11:23:00,,0832.7,4.99,0.00,22.8,21.4,00.0,31.2,24.4,13.1,0000.0,0010.79,0004.42,0001.93
2023-04-29 11:24:00,,0832.7,5.00,0.00,22.8,21.4,00.0,31.2,24.4,13.2,0000.0,0010.78,0004.39,0001.92
2023-04-29 11:25:00,,0832.8,5.00,0.00,22.8,21.4,00.0,31.2,24.4,13.0,0000.0,0010.64,0004.41,0001.92
2023-04-29 11:26:00,,0832.7,5.01,0.00,22.8,21.5,00.0,31.2,24.4,12.9,0000.0,0010.58,0004.36,0001.91
2023-04-29 11:27:00,,0832.8,5.01,0.00,22.9,21.5,00.0,31.2,24.5,12.8,0000.0,0010.38,0004.31,0001.90
2023-04-29 11:28:00,,0832.8,5.00,0.00,22.9,21.6,00.0,31.2,24.5,13.0,0000.0,0010.63,0004.38,0001.89
2023-04-29 11:29:00,,0832.8,5.00,0.00,22.9,21.6,00.0,31.2,24.5,12.9,0000.0,0010.56,0004.36,0001.88
2023-04-29 11:30:00,,0832.8,5.01,0.00,22.9,21.7,00.0,31.2,24.5,12.5,0000.0,0010.62,0004.38,0001.85
2023-04-29 11:31:00,,0832.8,5.00,0.00,22.9,21.7,00.0,31.2,24.6,12.5,0000.0,0010.83,0004.34,0001.86
2023-04-29 11:32:00,,0832.7,5.00,0.00,23.0,21.7,00.0,31.2,24.6,12.6,0000.0,0010.47,0004.21,0001.85
2023-04-29 11:33:00,,0832.8,5.00,0.00,23.0,21.8,00.0,31.2,24.5,12.6,0000.0,0010.06,0004.10,0001.85
2023-04-29 11:34:00,,0832.8,5.00,0.00,23.0,21.8,00.0,31.3,24.6,12.5,0000.0,0010.01,0004.07,0001.85
2023-04-29 11:35:00,,0832.7,5.00,0.00,23.0,21.8,00.0,31.3,24.6,12.6,0000.0,0010.07,0004.09,0001.87
2023-04-29 11:36:00,,0832.8,5.01,0.00,23.0,21.8,00.0,31.3,24.6,12.6,0000.0,0010.03,0004.14,0001.87
2023-04-29 11:37:00,,0832.8,5.00,0.00,23.1,21.8,00.0,31.3,24.7,12.5,0000.0,0010.13,0004.18,0001.89
2023-04-29 11:38:00,,0832.8,5.01,0.00,23.1,21.8,00.0,31.3,24.7,12.4,0000.0,0010.75,0004.23,0001.92
2023-04-29 11:39:00,,0832.8,5.00,0.00,23.1,21.8,00.0,31.3,24.8,12.4,0000.0,0010.64,0004.23,0001.96
2023-04-29 11:40:00,,0832.8,5.00,0.00,23.1,21.8,00.0,31.3,24.8,12.4,0000.0,0010.62,0004.21,0001.98
2023-04-29 11:41:00,,0832.8,4.99,0.00,23.1,21.8,00.0,31.4,24.8,12.4,0000.0,0010.41,0004.15,0002.00
2023-04-29 11:42:00,,0832.7,5.00,0.00,23.1,21.8,00.0,31.4,24.8,12.4,0000.0,0010.27,0004.17,0002.02
2023-04-29 11:43:00,,0832.7,5.00,0.00,23.1,21.9,00.0,31.4,24.7,12.3,0000.0,0010.37,0004.20,0002.05
2023-04-29 11:44:00,,0832.7,5.01,0.00,23.1,21.9,00.0,31.4,24.8,12.3,0000.0,0010.69,0004.21,0002.06
2023-04-29 11:45:00,,0832.8,5.00,0.00,23.1,21.9,00.0,31.4,24.8,12.2,0000.0,0010.41,0004.15,0002.07
2023-04-29 11:46:00,,0832.8,5.01,0.00,23.2,21.9,00.0,31.4,24.7,12.2,0000.0,0010.33,0004.13,0002.06
2023-04-29 11:47:00,,0832.8,4.99,0.00,23.2,21.9,00.0,31.4,24.7,12.2,0000.0,0010.27,0004.10,0002.05
2023-04-29 11:48:00,,0832.7,4.99,0.00,23.2,22.0,00.0,31.4,24.8,12.2,0000.0,0010.54,0004.17,0002.04
2023-04-29 11:49:00,,0832.8,4.99,0.00,23.2,22.0,00.0,31.4,24.8,12.2,0000.0,0010.15,0004.21,0002.03
2023-04-29 11:50:00,,0833.0,5.00,0.00,23.2,22.0,00.0,31.5,24.8,12.2,0000.0,0010.16,0004.20,0002.02
2023-04-29 11:51:00,,0832.8,4.99,0.00,23.2,22.0,00.0,31.5,24.9,12.2,0000.0,0010.34,0004.24,0002.03
2023-04-29 11:52:00,,0832.8,5.01,0.00,23.2,22.0,00.0,31.5,24.9,12.2,0000.0,0010.46,0004.28,0002.04
2023-04-29 11:53:00,,0833.1,5.00,0.00,23.3,22.0,00.0,31.5,24.8,12.3,0000.0,0010.90,0004.30,0002.02
2023-04-29 11:54:00,,0833.3,5.00,0.00,23.3,22.0,00.0,31.5,24.9,12.3,0000.0,0011.70,0004.29,0002.00
2023-04-29 11:55:00,,0833.3,5.00,0.00,23.3,22.0,00.0,31.5,24.9,12.3,0000.0,0012.34,0004.31,0002.00
2023-04-29 11:56:00,,0832.9,5.01,0.00,23.3,22.0,00.0,31.5,24.9,12.4,0000.0,0012.48,0004.34,0002.00
2023-04-29 11:57:00,,0833.0,5.00,0.00,23.3,22.0,00.0,31.5,24.8,12.4,0000.0,0012.64,0004.40,0002.02
2023-04-29 11:58:00,,0832.9,4.99,0.00,23.3,22.0,00.0,31.5,24.9,12.4,0000.0,0012.72,0004.43,0002.03
2023-04-29 11:59:00,,0833.0,5.00,0.00,23.3,22.0,00.0,31.5,24.9,12.5,0000.0,0012.98,0004.42,0002.05
